STARLINK-2270, 48000

Orbit data source: Space-Track

STARLINK-2270, 48000 is a payload satellite owned by SpaceX/Seattle (US) in LEO that was launched on Wed, 24 Mar 2021 UTC via an FALCON 9 launch vehicle from the Air Force Eastern Test Range (AFETR). Payload-class satellites include a variety of spacecraft equipped with specific instruments for various scientific and technological missions. These include communications satellites like Starlink; space stations such as the ISS; scientific satellites like the Hubble; Earth observation satellites from companies like Planet Labs, Umbra, and HawkEye 360; GPS; miniature CubeSats for education and research; and military/defense satellites.

Loading next visibility...
Identifier
48000, 2021-024Z
Orbit
LEO
Country
Flag of USUS
Related business
Manufacturer
SpaceX/Seattle
Mission
Partially operational Commercial Communications
Bus & Motor
STARLINK, Unknown motor
Mass
260 kg wet, ~248 kg dry
Launch date (UTC)
2021-03-24 (5 years ago)
Launch vehicle
FALCON 9
Launch site
Air Force Eastern Test Range (AFETR)
Object type
Payload
Rocket body
Debris
Shape & HBR
Box + 1 Pan, 10.1 m
Radar Cross Section
13.562 m², Large (>1 m²)

Expand to show TLE details & history
Last TLE update: 3 days ago

TLE from 3 days ago
0 STARLINK-2270
1 48000U 21024Z   26170.60591825  .00033891  00000-0  76316-3 0  9993
2 48000  53.1264 123.6248 0005664  48.2783 311.8706 15.42984619291506
Epoch: 2026-06-19T14:32Z
TLE epoch observation values (Epoch: 2026-06-19T14:32:31.336Z)
Latitude
-0.00008°
Longitude
-2.33831°
Altitude
435.632 km
Speed
7.653 km/s
True Right ascension
08h 14m 29s
True Declination
0° 00' 00"
Sunlit
Object was in daylight at epoch
Visualization orbit readout
Latitude
Unknown
Longitude
Unknown
Altitude
Unknown
Speed
Unknown
Apparent Right ascension
Unknown
Apparent Declination
Unknown
Sunlit
N/A
Visualization observer readout
Local Sidereal Time
21:58:21
Azimuth
Unknown
Elevation
Unknown
Doppler factor
Unknown
Orbital elements
Apogee altitude
441.43 km
Perigee altitude
433.709 km
Semi-major axis
6,815.707 km
Eccentricity
0.00057
Inclination
53.1264°
RAAN
123.6248°
Arg. of periapsis
48.2783°
True anomaly
311.82225°
Mean anomaly
311.8706°
Eccentric anomaly
311.84643°
Mean motion
3.85724 °/min
Orbital period
93.33 mins
BSTAR
0.00076316
Loading maneuver chart data...
Computing Atmospheric mass density...

Documentation

Showing up to 5 results
|